{"data":{"norad_id":59351,"intl_designator":"2024-060D","name":"STARLINK-31555","alt_names":[],"object_type":"PAYLOAD","status":"ACTIVE","operator":null,"country":"US","launch_date":"2024-03-31","launch_site_code":"AFETR","launch_vehicle":null,"mission":null,"orbit_class":"UNKNOWN","rcs_meters":null,"size_class":null,"mass_kg":null,"dimensions":null,"purposes":["comms"],"wikipedia_slug":null,"has_3d_model":false,"image_url":null,"decayed_at":null,"tle_current":{"epoch":"2026-05-25T03:21:03.918816Z","epoch_age_seconds":73710,"freshness":"FRESH","line1":"1 59351U 24060D   26145.13962869 -.00000373  00000+0 -40301-5 0  9994","line2":"2 59351  42.9967 188.2089 0001427 282.5963  77.4729 15.27586675121807","mean_motion":15.27586675,"eccentricity":0.0001427,"inclination_deg":42.9967,"raan_deg":188.2089,"arg_perigee_deg":282.5963,"mean_anomaly_deg":77.4729,"bstar":-4.0301e-6,"rev_number":12180,"period_min":94.266336802133,"perigee_km":482.05002035739,"apogee_km":484.00819716484,"semimajor_km":6861.1661087611,"source":"CELESTRAK","updated_at":"2026-05-25T13:38:18.908733Z"}}}